Showing default

PROBA-3 OSC, 62258

Orbit data source: Space-Track

PROBA-3 OSC, 62258 is a payload satellite owned by ESA (ESA) in HEO that was launched on Thu, 05 Dec 2024 UTC via a PSLV-XL launch vehicle from the Sirharikota (SRI). Payload-class satellites include a variety of spacecraft equipped with specific instruments for various scientific and technological missions. These include communications satellites like Starlink; space stations such as the ISS; scientific satellites like the Hubble; Earth observation satellites from companies like Planet Labs, Umbra, and HawkEye 360; GPS; miniature CubeSats for education and research; and military/defense satellites.

Loading next visibility...
Identifier
62258, 2024-233C
Orbit
HEO
Country
Flag of ESAESA
Related business
Manufacturer
Airbus/Toulouse
Mission
Operational Civil Tech/Ast
Bus & Motor
MYRIADE, Unknown motor
Mass
200 kg wet, 200 kg dry
Launch date (UTC)
2024-12-05 (2 years ago)
Launch vehicle
PSLV-XL
Launch site
Sirharikota (SRI)
Object type
Payload
Rocket body
Debris
Shape & HBR
Cyl, 2.2 m
Radar Cross Section
1.308 m², Large (>1 m²)

Expand to show TLE details & history
Last TLE update: 4 days ago

TLE from 4 days ago
0 PROBA-3 OSC
1 62258U 24233C   26167.48839175 -.00000320  00000-0  19164-2 0  9993
2 62258  59.7055  97.5389 8002640 205.5627  68.8704  1.22074056  6808
Epoch: 2026-06-16T11:43Z
TLE epoch observation values (Epoch: 2026-06-16T11:43:17.047Z)
Latitude
0.00001°
Longitude
17.04854°
Altitude
41,606.088 km
Speed
2.416 km/s
True Right ascension
06h 30m 31s
True Declination
0° 00' 00"
Sunlit
Object was in daylight at epoch
Visualization orbit readout
Latitude
Unknown
Longitude
Unknown
Altitude
Unknown
Speed
Unknown
Apparent Right ascension
Unknown
Apparent Declination
Unknown
Sunlit
N/A
Visualization observer readout
Local Sidereal Time
07:21:24
Azimuth
Unknown
Elevation
Unknown
Doppler factor
Unknown
Orbital elements
Apogee altitude
60,197.457 km
Perigee altitude
1,008.303 km
Semi-major axis
36,981.017 km
Eccentricity
0.80026
Inclination
59.7055°
RAAN
97.5389°
Arg. of periapsis
205.5627°
True anomaly
154.45519°
Mean anomaly
68.8704°
Eccentric anomaly
111.52449°
Mean motion
0.30519 °/min
Orbital period
1,179.58 mins
BSTAR
0.0019164
Loading maneuver chart data...
Computing Atmospheric mass density...
Loading historical data...
Loading historical data...
Loading historical data...
Loading historical data...
Loading historical data...
Loading historical data...
Loading historical data...
Other satellites on launch #233 in the year 2024 (2024-12-05 UTC)

Documentation

Showing up to 5 results
|